TimeCDT,TemperatureF,Dew PointF,Humidity,Sea Level PressureIn,VisibilityMPH,Wind Direction,Wind SpeedMPH,Gust SpeedMPH,PrecipitationIn,Events,Conditions,WindDirDegrees,DateUTC
12:08 AM,75.0,67.1,76,-9999,-9999.0,ESE,11.5,-,N/A,,Unknown,120,2013-08-05 05:08:00
12:28 AM,73.9,67.1,79,-9999,-9999.0,ESE,12.7,-,N/A,,Unknown,120,2013-08-05 05:28:00
12:48 AM,73.0,68.2,85,-9999,-9999.0,ESE,11.5,-,N/A,,Unknown,120,2013-08-05 05:48:00
1:08 AM,73.0,68.2,85,-9999,-9999.0,ESE,8.1,-,N/A,,Unknown,120,2013-08-05 06:08:00
1:28 AM,73.0,69.1,87,-9999,-9999.0,ESE,9.2,-,N/A,,Unknown,120,2013-08-05 06:28:00
1:48 AM,73.0,69.1,87,-9999,-9999.0,ESE,9.2,-,N/A,,Unknown,120,2013-08-05 06:48:00
2:08 AM,73.0,68.2,85,-9999,-9999.0,ESE,8.1,-,N/A,,Unknown,120,2013-08-05 07:08:00
2:28 AM,72.0,69.1,91,-9999,-9999.0,SE,6.9,-,N/A,,Unknown,130,2013-08-05 07:28:00
2:48 AM,72.0,69.1,91,-9999,-9999.0,SE,6.9,-,N/A,,Unknown,130,2013-08-05 07:48:00
3:08 AM,71.1,69.1,93,-9999,-9999.0,SSE,6.9,-,N/A,,Unknown,150,2013-08-05 08:08:00
3:28 AM,71.1,68.2,91,-9999,-9999.0,SSE,9.2,-,N/A,,Unknown,160,2013-08-05 08:28:00
3:48 AM,71.1,69.1,93,-9999,-9999.0,SSE,5.8,-,N/A,,Unknown,160,2013-08-05 08:48:00
4:08 AM,71.1,69.1,93,-9999,-9999.0,SSE,4.6,-,N/A,,Unknown,150,2013-08-05 09:08:00
4:28 AM,71.1,70.2,97,-9999,-9999.0,SSW,2.3,-,N/A,,Unknown,210,2013-08-05 09:28:00
4:48 AM,71.1,69.1,93,-9999,-9999.0,North,1.2,-,N/A,,Unknown,350,2013-08-05 09:48:00
5:08 AM,71.1,69.1,93,-9999,-9999.0,ENE,1.2,-,N/A,,Unknown,70,2013-08-05 10:08:00
5:28 AM,71.1,69.1,93,-9999,-9999.0,WSW,3.5,-,N/A,,Unknown,250,2013-08-05 10:28:00
5:48 AM,71.1,68.2,91,-9999,-9999.0,WNW,3.5,-,N/A,,Unknown,290,2013-08-05 10:48:00
6:08 AM,71.1,68.2,91,-9999,-9999.0,NW,2.3,-,N/A,,Unknown,310,2013-08-05 11:08:00
6:28 AM,70.0,68.2,94,-9999,-9999.0,West,4.6,-,N/A,,Unknown,280,2013-08-05 11:28:00
6:48 AM,-9999,-9999,N/A,-9999,-9999.0,North,-9999.0,-,N/A,,Unknown,0,2013-08-05 11:48:00
7:08 AM,71.1,67.1,87,-9999,-9999.0,WNW,5.8,-,N/A,,Unknown,290,2013-08-05 12:08:00
7:28 AM,70.0,68.2,94,-9999,-9999.0,West,5.8,-,N/A,,Unknown,280,2013-08-05 12:28:00
7:48 AM,71.1,68.2,91,-9999,-9999.0,WNW,5.8,-,N/A,,Unknown,290,2013-08-05 12:48:00
8:08 AM,72.0,66.0,81,-9999,-9999.0,West,6.9,-,N/A,,Unknown,280,2013-08-05 13:08:00
8:28 AM,73.9,65.1,74,-9999,-9999.0,WNW,6.9,-,N/A,,Unknown,290,2013-08-05 13:28:00
8:48 AM,75.9,65.1,69,-9999,-9999.0,WNW,6.9,-,N/A,,Unknown,290,2013-08-05 13:48:00
9:08 AM,77.0,62.1,60,-9999,-9999.0,WNW,6.9,-,N/A,,Unknown,290,2013-08-05 14:08:00
9:28 AM,78.1,61.2,56,-9999,-9999.0,WNW,8.1,-,N/A,,Unknown,300,2013-08-05 14:28:00
9:48 AM,79.0,60.1,52,-9999,-9999.0,NW,9.2,-,N/A,,Unknown,320,2013-08-05 14:48:00
10:08 AM,81.0,62.1,52,-9999,-9999.0,NNW,4.6,-,N/A,,Unknown,330,2013-08-05 15:08:00
10:28 AM,82.0,62.1,51,-9999,-9999.0,WNW,5.8,-,N/A,,Unknown,300,2013-08-05 15:28:00
10:48 AM,84.0,62.1,47,-9999,-9999.0,NW,4.6,-,N/A,,Unknown,320,2013-08-05 15:48:00
11:08 AM,86.0,63.1,46,-9999,-9999.0,West,5.8,-,N/A,,Unknown,260,2013-08-05 16:08:00
11:28 AM,87.1,62.1,43,-9999,-9999.0,SSW,3.5,-,N/A,,Unknown,210,2013-08-05 16:28:00
11:48 AM,88.0,62.1,42,-9999,-9999.0,West,4.6,-,N/A,,Unknown,260,2013-08-05 16:48:00
12:08 PM,89.1,61.2,39,-9999,-9999.0,WNW,6.9,-,N/A,,Unknown,290,2013-08-05 17:08:00
12:28 PM,90.0,62.1,39,-9999,-9999.0,NW,3.5,-,N/A,,Unknown,310,2013-08-05 17:28:00
12:48 PM,91.9,62.1,37,-9999,-9999.0,West,4.6,-,N/A,,Unknown,280,2013-08-05 17:48:00
1:08 PM,93.0,61.2,34,-9999,-9999.0,SSW,5.8,-,N/A,,Unknown,200,2013-08-05 18:08:00
1:28 PM,93.0,62.1,36,-9999,-9999.0,ESE,5.8,-,N/A,,Unknown,120,2013-08-05 18:28:00
1:48 PM,95.0,61.2,32,-9999,-9999.0,East,6.9,-,N/A,,Unknown,100,2013-08-05 18:48:00
2:08 PM,95.0,62.1,33,-9999,-9999.0,SW,5.8,-,N/A,,Unknown,220,2013-08-05 19:08:00
2:28 PM,97.0,61.2,30,-9999,-9999.0,West,8.1,-,N/A,,Unknown,260,2013-08-05 19:28:00
2:48 PM,97.0,61.2,30,-9999,-9999.0,SSW,2.3,-,N/A,,Unknown,210,2013-08-05 19:48:00
3:08 PM,98.1,59.2,27,-9999,-9999.0,WSW,9.2,-,N/A,,Unknown,240,2013-08-05 20:08:00
3:28 PM,100.0,59.2,26,-9999,-9999.0,WSW,9.2,-,N/A,,Unknown,250,2013-08-05 20:28:00
3:48 PM,100.0,57.0,24,-9999,-9999.0,WSW,13.8,-,N/A,,Unknown,240,2013-08-05 20:48:00
4:08 PM,100.0,56.1,23,-9999,-9999.0,SW,9.2,-,N/A,,Unknown,220,2013-08-05 21:08:00
4:28 PM,99.0,56.1,24,-9999,-9999.0,SSW,10.4,-,N/A,,Unknown,200,2013-08-05 21:28:00
4:48 PM,100.0,57.0,24,-9999,-9999.0,WSW,13.8,-,N/A,,Unknown,240,2013-08-05 21:48:00
5:08 PM,100.0,56.1,23,-9999,-9999.0,West,11.5,-,N/A,,Unknown,260,2013-08-05 22:08:00
5:28 PM,99.0,57.0,25,-9999,-9999.0,SW,12.7,-,N/A,,Unknown,230,2013-08-05 22:28:00
5:48 PM,100.0,57.0,24,-9999,-9999.0,SW,8.1,-,N/A,,Unknown,230,2013-08-05 22:48:00
6:08 PM,99.0,57.0,25,-9999,-9999.0,WSW,10.4,-,N/A,,Unknown,250,2013-08-05 23:08:00
6:28 PM,98.1,56.1,25,-9999,-9999.0,SSW,9.2,-,N/A,,Unknown,210,2013-08-05 23:28:00
6:48 PM,97.0,56.1,25,-9999,-9999.0,WSW,12.7,-,N/A,,Unknown,250,2013-08-05 23:48:00
7:08 PM,97.0,57.0,26,-9999,-9999.0,SW,9.2,-,N/A,,Unknown,220,2013-08-06 00:08:00
7:28 PM,97.0,58.1,27,-9999,-9999.0,West,10.4,-,N/A,,Unknown,260,2013-08-06 00:28:00
7:48 PM,95.0,56.1,27,-9999,-9999.0,West,9.2,-,N/A,,Unknown,270,2013-08-06 00:48:00
8:08 PM,93.9,56.1,28,-9999,-9999.0,West,8.1,-,N/A,,Unknown,280,2013-08-06 01:08:00
8:28 PM,91.9,59.2,33,-9999,-9999.0,North,15.0,-,N/A,,Unknown,360,2013-08-06 01:28:00
8:48 PM,79.0,65.1,62,-9999,-9999.0,NNE,13.8,-,N/A,,Unknown,30,2013-08-06 01:48:00
9:08 PM,75.9,65.1,69,-9999,-9999.0,NNE,15.0,-,N/A,,Unknown,30,2013-08-06 02:08:00
9:28 PM,75.0,65.1,71,-9999,-9999.0,NNE,11.5,-,N/A,,Unknown,30,2013-08-06 02:28:00
9:48 PM,73.9,65.1,74,-9999,-9999.0,NE,9.2,-,N/A,,Unknown,50,2013-08-06 02:48:00
10:08 PM,73.0,65.1,76,-9999,-9999.0,ENE,8.1,-,N/A,,Unknown,60,2013-08-06 03:08:00
10:28 PM,72.0,65.1,79,-9999,-9999.0,ENE,11.5,-,N/A,,Unknown,70,2013-08-06 03:28:00
10:48 PM,72.0,65.1,79,-9999,-9999.0,ENE,11.5,-,N/A,,Unknown,60,2013-08-06 03:48:00
11:08 PM,71.1,64.0,78,-9999,-9999.0,ENE,10.4,-,N/A,,Unknown,70,2013-08-06 04:08:00
11:28 PM,71.1,64.0,78,-9999,-9999.0,East,9.2,-,N/A,,Unknown,80,2013-08-06 04:28:00
11:48 PM,71.1,66.0,84,-9999,-9999.0,ENE,5.8,-,N/A,,Unknown,60,2013-08-06 04:48:00